Year,Month,Day,Hour,Minute,Value (Times are PST for temperature in C)
2015,03,13,00,00,8.70
2015,03,13,00,01,8.70
2015,03,13,00,02,8.60
2015,03,13,00,03,8.60
2015,03,13,00,04,8.60
2015,03,13,00,05,8.50
2015,03,13,00,06,8.40
2015,03,13,00,07,8.40
2015,03,13,00,08,8.40
2015,03,13,00,09,8.30
2015,03,13,00,10,8.30
2015,03,13,00,11,8.30
2015,03,13,00,12,8.30
2015,03,13,00,13,8.30
2015,03,13,00,14,8.30
2015,03,13,00,15,8.30
2015,03,13,00,16,8.30
2015,03,13,00,17,8.30
2015,03,13,00,18,8.30
2015,03,13,00,19,8.30
2015,03,13,00,20,8.30
2015,03,13,00,21,8.30
2015,03,13,00,22,8.30
2015,03,13,00,23,8.30
2015,03,13,00,24,8.30
2015,03,13,00,25,8.20
2015,03,13,00,26,8.20
2015,03,13,00,27,8.20
2015,03,13,00,28,8.20
2015,03,13,00,29,8.20
2015,03,13,00,30,8.20
2015,03,13,00,31,8.20
2015,03,13,00,32,8.20
2015,03,13,00,33,8.20
2015,03,13,00,34,8.20
2015,03,13,00,35,8.20
2015,03,13,00,36,8.20
2015,03,13,00,37,8.20
2015,03,13,00,38,8.20
2015,03,13,00,39,8.20
2015,03,13,00,40,8.10
2015,03,13,00,41,8.10
2015,03,13,00,42,8.10
2015,03,13,00,43,8.10
2015,03,13,00,44,8.10
2015,03,13,00,45,8.00
2015,03,13,00,46,8.00
2015,03,13,00,47,8.00
2015,03,13,00,48,8.00
2015,03,13,00,49,8.00
2015,03,13,00,50,7.90
2015,03,13,00,51,7.90
2015,03,13,00,52,7.90
2015,03,13,00,53,7.90
2015,03,13,00,54,7.90
2015,03,13,00,55,7.90
2015,03,13,00,56,7.90
2015,03,13,00,57,7.90
2015,03,13,00,58,7.90
2015,03,13,00,59,7.90
2015,03,13,01,00,7.90
2015,03,13,01,01,7.90
2015,03,13,01,02,7.90
2015,03,13,01,03,7.80
2015,03,13,01,04,7.80
2015,03,13,01,05,7.80
2015,03,13,01,06,7.80
2015,03,13,01,07,7.80
2015,03,13,01,08,7.80
2015,03,13,01,09,7.80
2015,03,13,01,10,7.80
2015,03,13,01,11,7.80
2015,03,13,01,12,7.70
2015,03,13,01,13,7.70
2015,03,13,01,14,7.70
2015,03,13,01,15,7.70
2015,03,13,01,16,7.70
2015,03,13,01,17,7.70
2015,03,13,01,18,7.70
2015,03,13,01,19,7.70
2015,03,13,01,20,7.70
2015,03,13,01,21,7.60
2015,03,13,01,22,7.60
2015,03,13,01,23,7.60
2015,03,13,01,24,7.60
2015,03,13,01,25,7.60
2015,03,13,01,26,7.60
2015,03,13,01,27,7.60
2015,03,13,01,28,7.60
2015,03,13,01,29,7.60
2015,03,13,01,30,7.60
2015,03,13,01,31,7.60
2015,03,13,01,32,7.60
2015,03,13,01,33,7.60
2015,03,13,01,34,7.60
2015,03,13,01,35,7.60
2015,03,13,01,36,7.60
2015,03,13,01,37,7.60
2015,03,13,01,38,7.60
2015,03,13,01,39,7.50
2015,03,13,01,40,7.50
2015,03,13,01,41,7.50
2015,03,13,01,42,7.50
2015,03,13,01,43,7.50
2015,03,13,01,44,7.40
2015,03,13,01,45,7.40
2015,03,13,01,46,7.40
2015,03,13,01,47,7.40
2015,03,13,01,48,7.30
2015,03,13,01,49,7.30
2015,03,13,01,50,7.30
2015,03,13,01,51,7.30
2015,03,13,01,52,7.30
2015,03,13,01,53,7.30
2015,03,13,01,54,7.30
2015,03,13,01,55,7.30
2015,03,13,01,56,7.30
2015,03,13,01,57,7.30
2015,03,13,01,58,7.30
2015,03,13,01,59,7.30
2015,03,13,02,00,7.30
2015,03,13,02,01,7.20
2015,03,13,02,02,7.20
2015,03,13,02,03,7.20
2015,03,13,02,04,7.20
2015,03,13,02,05,7.20
2015,03,13,02,06,7.20
2015,03,13,02,07,7.20
2015,03,13,02,08,7.20
2015,03,13,02,09,7.20
2015,03,13,02,10,7.20
2015,03,13,02,11,7.20
2015,03,13,02,12,7.20
2015,03,13,02,13,7.10
2015,03,13,02,14,7.10
2015,03,13,02,15,7.10
2015,03,13,02,16,7.00
2015,03,13,02,17,7.00
2015,03,13,02,18,7.00
2015,03,13,02,19,6.90
2015,03,13,02,20,6.90
2015,03,13,02,21,6.90
2015,03,13,02,22,6.80
2015,03,13,02,23,6.80
2015,03,13,02,24,6.80
2015,03,13,02,25,6.80
2015,03,13,02,26,6.80
2015,03,13,02,27,6.80
2015,03,13,02,28,6.80
2015,03,13,02,29,6.70
2015,03,13,02,30,6.70
2015,03,13,02,31,6.80
2015,03,13,02,32,6.70
2015,03,13,02,33,6.70
2015,03,13,02,34,6.70
2015,03,13,02,35,6.70
2015,03,13,02,36,6.70
2015,03,13,02,37,6.60
2015,03,13,02,38,6.60
2015,03,13,02,39,6.60
2015,03,13,02,40,6.60
2015,03,13,02,41,6.60
2015,03,13,02,42,6.60
2015,03,13,02,43,6.60
2015,03,13,02,44,6.50
2015,03,13,02,45,6.50
2015,03,13,02,46,6.50
2015,03,13,02,47,6.40
2015,03,13,02,48,6.40
2015,03,13,02,49,6.40
2015,03,13,02,50,6.40
2015,03,13,02,51,6.40
2015,03,13,02,52,6.50
2015,03,13,02,53,6.50
2015,03,13,02,54,6.50
2015,03,13,02,55,6.50
2015,03,13,02,56,6.60
2015,03,13,02,57,6.60
2015,03,13,02,58,6.60
2015,03,13,02,59,6.60
2015,03,13,03,00,6.60
2015,03,13,03,01,6.60
2015,03,13,03,02,6.60
2015,03,13,03,06,6.60
2015,03,13,03,07,6.60
2015,03,13,03,08,6.60
2015,03,13,03,09,6.50
2015,03,13,03,10,6.50
2015,03,13,03,11,6.50
2015,03,13,03,12,6.40
2015,03,13,03,13,6.40
2015,03,13,03,14,6.40
2015,03,13,03,15,6.40
2015,03,13,03,16,6.40
2015,03,13,03,17,6.40
2015,03,13,03,18,6.40
2015,03,13,03,19,6.40
2015,03,13,03,20,6.50
2015,03,13,03,21,6.50
2015,03,13,03,22,6.50
2015,03,13,03,23,6.50
2015,03,13,03,24,6.40
2015,03,13,03,25,6.40
2015,03,13,03,26,6.40
2015,03,13,03,27,6.40
2015,03,13,03,28,6.40
2015,03,13,03,29,6.40
2015,03,13,03,30,6.30
2015,03,13,03,31,6.30
2015,03,13,03,32,6.30
2015,03,13,03,33,6.30
2015,03,13,03,34,6.30
2015,03,13,03,35,6.30
2015,03,13,03,36,6.30
2015,03,13,03,37,6.30
2015,03,13,03,38,6.30
2015,03,13,03,39,6.30
2015,03,13,03,40,6.30
2015,03,13,03,41,6.30
2015,03,13,03,42,6.30
2015,03,13,03,43,6.30
2015,03,13,03,44,6.30
2015,03,13,03,45,6.30
2015,03,13,03,46,6.30
2015,03,13,03,47,6.30
2015,03,13,03,48,6.30
2015,03,13,03,49,6.30
2015,03,13,03,50,6.30
2015,03,13,03,51,6.40
2015,03,13,03,52,6.40
2015,03,13,03,53,6.40
2015,03,13,03,54,6.40
2015,03,13,03,55,6.40
2015,03,13,03,56,6.40
2015,03,13,03,57,6.40
2015,03,13,03,58,6.40
2015,03,13,03,59,6.40
2015,03,13,04,00,6.40
2015,03,13,04,01,6.40
2015,03,13,09,06,7.60
2015,03,13,09,07,7.70
2015,03,13,09,08,7.70
2015,03,13,09,09,7.80
2015,03,13,09,10,7.80
2015,03,13,09,11,7.90
2015,03,13,09,12,7.90
2015,03,13,09,13,8.10
2015,03,13,09,14,8.20
2015,03,13,09,15,8.20
2015,03,13,09,16,8.30
2015,03,13,09,17,8.40
2015,03,13,09,18,8.50
2015,03,13,09,19,8.60
2015,03,13,09,20,8.80
2015,03,13,09,21,8.90
2015,03,13,09,22,9.00
2015,03,13,09,23,9.10
2015,03,13,09,24,9.10
2015,03,13,09,25,9.20
2015,03,13,09,26,9.30
2015,03,13,09,27,9.30
2015,03,13,09,28,9.40
2015,03,13,09,29,9.40
2015,03,13,09,30,9.40
2015,03,13,09,31,9.40
2015,03,13,09,32,9.40
2015,03,13,09,33,9.40
2015,03,13,09,34,9.40
2015,03,13,09,35,9.50
2015,03,13,09,36,9.50
2015,03,13,09,37,9.60
2015,03,13,09,38,9.60
2015,03,13,09,39,9.70
2015,03,13,09,40,9.70
2015,03,13,09,41,9.70
2015,03,13,09,42,9.70
2015,03,13,09,43,9.80
2015,03,13,09,44,9.80
2015,03,13,09,45,9.90
2015,03,13,09,46,10.00
2015,03,13,09,47,10.20
2015,03,13,09,48,10.40
2015,03,13,09,49,10.50
2015,03,13,09,50,10.70
2015,03,13,09,51,10.90
2015,03,13,09,52,11.20
2015,03,13,09,53,11.50
2015,03,13,09,54,11.70
2015,03,13,09,55,11.80
2015,03,13,09,56,11.90
2015,03,13,09,57,12.00
2015,03,13,09,58,12.10
2015,03,13,09,59,12.20
2015,03,13,10,00,12.30
2015,03,13,10,01,12.30
2015,03,13,10,02,12.30
2015,03,13,10,03,12.30
2015,03,13,10,04,12.40
2015,03,13,10,05,12.40
2015,03,13,10,06,12.50
2015,03,13,10,07,12.50
2015,03,13,10,08,12.50
2015,03,13,10,09,12.60
2015,03,13,10,10,12.70
2015,03,13,10,11,12.70
2015,03,13,10,12,12.70
2015,03,13,10,13,12.80
2015,03,13,10,14,12.90
2015,03,13,10,15,12.90
2015,03,13,10,16,12.90
2015,03,13,10,17,13.00
2015,03,13,10,18,13.00
2015,03,13,10,19,13.00
2015,03,13,10,20,13.00
2015,03,13,10,21,13.00
2015,03,13,10,22,13.00
2015,03,13,10,23,12.90
2015,03,13,10,24,13.00
2015,03,13,10,25,13.00
2015,03,13,10,26,13.10
2015,03,13,10,27,13.10
2015,03,13,10,28,13.10
2015,03,13,10,29,13.20
2015,03,13,10,30,13.20
2015,03,13,10,31,13.30
2015,03,13,10,32,13.40
2015,03,13,10,33,13.40
2015,03,13,10,34,13.40
2015,03,13,10,35,13.40
2015,03,13,10,36,13.50
2015,03,13,10,37,13.50
2015,03,13,10,38,13.50
2015,03,13,10,39,13.60
2015,03,13,10,40,13.60
2015,03,13,10,41,13.70
2015,03,13,10,42,13.70
2015,03,13,10,43,13.80
2015,03,13,10,44,13.80
2015,03,13,10,45,13.80
2015,03,13,10,46,13.80
2015,03,13,10,47,13.80
2015,03,13,10,48,13.80
2015,03,13,10,49,13.80
2015,03,13,10,50,13.80
2015,03,13,10,51,13.80
2015,03,13,10,52,13.70
2015,03,13,10,53,13.70
2015,03,13,10,54,13.70
2015,03,13,10,55,13.70
2015,03,13,10,56,13.70
2015,03,13,10,57,13.70
2015,03,13,10,58,13.80
2015,03,13,10,59,13.80
2015,03,13,11,00,13.80
2015,03,13,11,01,13.80
2015,03,13,11,02,13.80
2015,03,13,11,03,13.80
2015,03,13,11,04,13.80
2015,03,13,11,05,13.80
2015,03,13,11,06,13.70
2015,03,13,11,07,13.60
2015,03,13,11,08,13.60
2015,03,13,11,09,13.50
2015,03,13,11,10,13.50
2015,03,13,11,11,13.40
2015,03,13,11,12,13.40
2015,03,13,11,13,13.40
2015,03,13,11,14,13.40
2015,03,13,11,15,13.40
2015,03,13,11,16,13.40
2015,03,13,11,17,13.40
2015,03,13,11,18,13.40
2015,03,13,11,19,13.40
2015,03,13,11,20,13.40
2015,03,13,11,21,13.50
2015,03,13,11,22,13.50
2015,03,13,11,23,13.50
2015,03,13,11,24,13.50
2015,03,13,11,25,13.60
2015,03,13,11,26,13.60
2015,03,13,11,27,13.60
2015,03,13,11,28,13.50
2015,03,13,11,29,13.50
2015,03,13,11,30,13.50
2015,03,13,11,31,13.40
2015,03,13,11,32,13.40
2015,03,13,11,33,13.40
2015,03,13,11,34,13.30
2015,03,13,11,35,13.30
2015,03,13,11,36,13.30
2015,03,13,11,37,13.30
2015,03,13,11,38,13.30
2015,03,13,11,39,13.30
2015,03,13,11,40,13.30
2015,03,13,11,41,13.30
2015,03,13,11,42,13.20
2015,03,13,11,43,13.20
2015,03,13,11,44,13.20
2015,03,13,11,45,13.20
2015,03,13,11,46,13.20
2015,03,13,11,47,13.30
2015,03,13,11,48,13.30
2015,03,13,11,49,13.30
2015,03,13,11,50,13.30
2015,03,13,11,51,13.30
2015,03,13,11,52,13.30
2015,03,13,11,53,13.30
2015,03,13,11,54,13.30
2015,03,13,11,55,13.30
2015,03,13,11,56,13.40
2015,03,13,11,57,13.50
2015,03,13,11,58,13.50
2015,03,13,11,59,13.60
2015,03,13,12,00,13.70
2015,03,13,12,01,13.70
2015,03,13,12,02,13.70
2015,03,13,12,03,13.70
2015,03,13,12,04,13.80
2015,03,13,12,05,13.80
2015,03,13,12,06,13.80
2015,03,13,12,07,13.80
2015,03,13,12,08,13.70
2015,03,13,12,09,13.70
2015,03,13,12,10,13.80
2015,03,13,12,11,13.80
2015,03,13,12,12,13.70
2015,03,13,12,13,13.70
2015,03,13,12,14,13.70
2015,03,13,12,15,13.80
2015,03,13,12,16,13.80
2015,03,13,12,17,13.80
2015,03,13,12,18,13.80
2015,03,13,12,19,13.90
2015,03,13,12,20,14.00
2015,03,13,12,21,14.00
2015,03,13,12,22,14.00
2015,03,13,12,23,14.10
2015,03,13,12,24,14.20
2015,03,13,12,25,14.20
2015,03,13,12,26,14.20
2015,03,13,12,27,14.20
2015,03,13,12,28,14.30
2015,03,13,12,29,14.50
2015,03,13,12,30,14.60
2015,03,13,12,31,14.70
2015,03,13,12,32,14.80
2015,03,13,12,33,14.80
2015,03,13,12,34,14.90
2015,03,13,12,35,14.90
2015,03,13,12,36,14.80
2015,03,13,12,37,14.80
2015,03,13,12,38,14.80
2015,03,13,12,39,14.80
2015,03,13,12,40,14.90
2015,03,13,12,41,14.90
2015,03,13,12,42,14.90
2015,03,13,12,43,15.00
2015,03,13,12,44,14.90
2015,03,13,12,45,15.00
2015,03,13,12,46,14.90
2015,03,13,12,47,14.90
2015,03,13,12,48,14.90
2015,03,13,12,49,14.90
2015,03,13,12,50,14.80
2015,03,13,12,51,14.70
2015,03,13,12,52,14.70
2015,03,13,12,53,14.60
2015,03,13,12,54,14.60
2015,03,13,12,55,14.50
2015,03,13,12,56,14.50
2015,03,13,12,57,14.50
2015,03,13,12,58,14.50
2015,03,13,12,59,14.40
2015,03,13,13,00,14.50
2015,03,13,13,01,14.50
2015,03,13,13,02,14.50
2015,03,13,13,03,14.50
2015,03,13,13,04,14.50
2015,03,13,13,05,14.60
2015,03,13,13,06,14.60
2015,03,13,13,07,14.60
2015,03,13,13,08,14.70
2015,03,13,13,09,14.70
2015,03,13,13,10,14.70
2015,03,13,13,11,14.60
2015,03,13,13,12,14.50
2015,03,13,13,13,14.50
2015,03,13,13,14,14.50
2015,03,13,13,15,14.50
2015,03,13,13,16,14.50
2015,03,13,13,17,14.50
2015,03,13,13,18,14.50
2015,03,13,13,19,14.50
2015,03,13,13,20,14.40
2015,03,13,13,21,14.40
2015,03,13,13,22,14.40
2015,03,13,13,23,14.40
2015,03,13,13,24,14.40
2015,03,13,13,25,14.50
2015,03,13,13,26,14.50
2015,03,13,13,27,14.50
2015,03,13,13,28,14.50
2015,03,13,13,29,14.60
2015,03,13,13,30,14.60
2015,03,13,13,31,14.70
2015,03,13,13,32,14.70
2015,03,13,13,33,14.80
2015,03,13,13,34,14.80
2015,03,13,13,35,14.80
2015,03,13,13,36,14.80
2015,03,13,13,37,14.90
2015,03,13,13,38,14.90
2015,03,13,13,39,14.90
2015,03,13,13,40,14.90
2015,03,13,13,41,15.00
2015,03,13,13,42,15.00
2015,03,13,13,43,15.00
2015,03,13,13,44,15.00
2015,03,13,13,45,15.00
2015,03,13,13,46,15.00
2015,03,13,13,47,15.00
2015,03,13,13,48,15.00
2015,03,13,13,49,15.10
2015,03,13,13,50,15.10
2015,03,13,13,51,15.10
2015,03,13,13,52,15.20
2015,03,13,13,53,15.20
2015,03,13,13,54,15.20
2015,03,13,13,55,15.20
2015,03,13,13,56,15.30
2015,03,13,13,57,15.30
2015,03,13,13,58,15.30
2015,03,13,13,59,15.30
2015,03,13,14,00,15.30
2015,03,13,14,01,15.30
2015,03,13,14,02,15.30
2015,03,13,14,03,15.30
2015,03,13,14,04,15.20
2015,03,13,14,05,15.20
2015,03,13,14,06,15.10
2015,03,13,14,07,15.10
2015,03,13,14,08,15.10
2015,03,13,14,09,15.10
2015,03,13,14,10,15.10
2015,03,13,14,11,15.00
2015,03,13,14,12,15.00
2015,03,13,14,13,15.00
2015,03,13,14,14,15.00
2015,03,13,14,15,14.90
2015,03,13,14,16,15.00
2015,03,13,14,17,15.00
2015,03,13,14,18,15.00
2015,03,13,14,19,15.10
2015,03,13,14,20,15.00
2015,03,13,14,21,15.00
2015,03,13,14,22,15.00
2015,03,13,14,23,15.00
2015,03,13,14,24,15.00
2015,03,13,14,25,14.90
2015,03,13,14,26,15.00
2015,03,13,14,27,15.00
2015,03,13,14,28,15.00
2015,03,13,14,29,15.00
2015,03,13,14,30,15.00
2015,03,13,14,31,15.00
2015,03,13,14,32,15.00
2015,03,13,14,33,15.00
2015,03,13,14,34,15.10
2015,03,13,14,35,15.10
2015,03,13,14,36,15.00
2015,03,13,14,37,15.00
2015,03,13,14,38,14.90
2015,03,13,14,39,14.90
2015,03,13,14,40,14.90
2015,03,13,14,41,14.90
2015,03,13,14,42,14.90
2015,03,13,14,43,14.90
2015,03,13,14,44,14.90
2015,03,13,14,45,14.90
2015,03,13,14,46,14.90
2015,03,13,14,47,14.90
2015,03,13,14,48,14.90
2015,03,13,14,49,14.90
2015,03,13,14,50,14.90
2015,03,13,14,51,14.90
2015,03,13,14,52,14.90
2015,03,13,14,53,14.90
2015,03,13,14,54,14.90
2015,03,13,14,55,14.90
2015,03,13,14,56,14.90
2015,03,13,14,57,14.90
2015,03,13,14,58,14.90
2015,03,13,14,59,14.90
2015,03,13,15,00,14.90
2015,03,13,15,01,14.90
2015,03,13,15,02,14.80
2015,03,13,15,03,14.80
2015,03,13,15,04,14.80
2015,03,13,15,05,14.80
2015,03,13,15,06,14.70
2015,03,13,15,07,14.70
2015,03,13,15,08,14.70
2015,03,13,15,09,14.70
2015,03,13,15,10,14.70
2015,03,13,15,11,14.70
2015,03,13,15,12,14.70
2015,03,13,15,13,14.70
2015,03,13,15,14,14.70
2015,03,13,15,15,14.70
2015,03,13,15,16,14.70
2015,03,13,15,17,14.70
2015,03,13,15,18,14.70
2015,03,13,15,19,14.80
2015,03,13,15,20,14.80
2015,03,13,15,21,14.80
2015,03,13,15,22,14.80
2015,03,13,15,23,14.80
2015,03,13,15,24,14.80
2015,03,13,15,25,14.80
2015,03,13,15,26,14.80
2015,03,13,15,27,14.80
2015,03,13,15,28,14.80
2015,03,13,15,29,14.80
2015,03,13,15,30,14.90
2015,03,13,15,31,14.90
2015,03,13,15,32,14.90
2015,03,13,15,33,14.90
2015,03,13,15,34,14.90
2015,03,13,15,35,14.90
2015,03,13,15,36,14.90
2015,03,13,15,37,14.90
2015,03,13,15,38,14.90
2015,03,13,15,39,14.90
2015,03,13,15,40,14.90
2015,03,13,15,41,14.90
2015,03,13,15,42,14.80
2015,03,13,15,43,14.80
2015,03,13,15,44,14.80
2015,03,13,15,45,14.80
2015,03,13,15,46,14.80
2015,03,13,15,47,14.80
2015,03,13,15,48,14.80
2015,03,13,15,49,14.80
2015,03,13,15,50,14.80
2015,03,13,15,51,14.80
2015,03,13,15,52,14.80
2015,03,13,15,53,14.80
2015,03,13,15,54,14.80
2015,03,13,15,55,14.70
2015,03,13,15,56,14.70
2015,03,13,15,57,14.80
2015,03,13,15,58,14.80
2015,03,13,15,59,14.80
2015,03,13,16,00,14.80
2015,03,13,16,01,14.80
2015,03,13,16,02,14.80
2015,03,13,16,03,14.80
2015,03,13,16,04,14.80
2015,03,13,16,05,14.70
2015,03,13,16,06,14.70
2015,03,13,16,07,14.70
2015,03,13,16,08,14.70
2015,03,13,16,09,14.70
2015,03,13,16,10,14.70
2015,03,13,16,11,14.70
2015,03,13,16,12,14.60
2015,03,13,16,13,14.60
2015,03,13,16,14,14.60
2015,03,13,16,15,14.70
2015,03,13,16,16,14.70
2015,03,13,16,17,14.70
2015,03,13,16,18,14.70
2015,03,13,16,19,14.70
2015,03,13,16,20,14.70
2015,03,13,16,21,14.70
2015,03,13,16,22,14.70
2015,03,13,16,23,14.70
2015,03,13,16,24,14.70
2015,03,13,16,25,14.60
2015,03,13,16,26,14.60
2015,03,13,16,27,14.60
2015,03,13,16,28,14.60
2015,03,13,16,29,14.60
2015,03,13,16,30,14.60
2015,03,13,16,31,14.60
2015,03,13,16,32,14.60
2015,03,13,16,33,14.60
2015,03,13,16,34,14.60
2015,03,13,16,35,14.60
2015,03,13,16,36,14.60
2015,03,13,16,37,14.50
2015,03,13,16,38,14.50
2015,03,13,16,39,14.50
2015,03,13,16,40,14.50
2015,03,13,16,41,14.50
2015,03,13,16,42,14.50
2015,03,13,16,43,14.50
2015,03,13,16,44,14.50
2015,03,13,16,45,14.50
2015,03,13,16,46,14.40
2015,03,13,16,47,14.40
2015,03,13,16,48,14.40
2015,03,13,16,49,14.40
2015,03,13,16,50,14.30
2015,03,13,16,51,14.30
2015,03,13,16,52,14.30
2015,03,13,16,53,14.30
2015,03,13,16,54,14.30
2015,03,13,16,55,14.30
2015,03,13,16,56,14.30
2015,03,13,16,57,14.20
2015,03,13,16,58,14.20
2015,03,13,16,59,14.20
2015,03,13,17,00,14.20
2015,03,13,17,01,14.20
2015,03,13,17,02,14.20
2015,03,13,17,03,14.20
2015,03,13,17,04,14.20
2015,03,13,17,05,14.20
2015,03,13,17,06,14.20
2015,03,13,17,07,14.20
2015,03,13,17,08,14.20
2015,03,13,17,09,14.10
2015,03,13,17,10,14.10
2015,03,13,17,11,14.10
2015,03,13,17,12,14.10
2015,03,13,17,13,14.10
2015,03,13,17,14,14.00
2015,03,13,17,15,14.00
2015,03,13,17,16,14.00
2015,03,13,17,17,13.90
2015,03,13,17,18,13.90
2015,03,13,17,19,13.80
2015,03,13,17,20,13.80
2015,03,13,17,21,13.80
2015,03,13,17,22,13.80
2015,03,13,17,23,13.80
2015,03,13,17,24,13.80
2015,03,13,17,25,13.80
2015,03,13,17,26,13.80
2015,03,13,17,27,13.80
2015,03,13,17,28,13.80
2015,03,13,17,29,13.80
2015,03,13,17,30,13.90
2015,03,13,17,31,13.90
2015,03,13,17,32,13.90
2015,03,13,17,33,13.90
2015,03,13,17,34,13.90
2015,03,13,17,35,13.90
2015,03,13,17,36,13.90
2015,03,13,17,37,13.90
2015,03,13,17,38,14.00
2015,03,13,17,39,14.00
2015,03,13,17,40,14.10
2015,03,13,17,41,14.10
2015,03,13,17,42,14.10
2015,03,13,17,43,14.20
2015,03,13,17,44,14.20
2015,03,13,17,45,14.20
2015,03,13,17,46,14.20
2015,03,13,17,47,14.20
2015,03,13,17,48,14.20
2015,03,13,17,49,14.20
2015,03,13,17,50,14.20
2015,03,13,17,51,14.20
2015,03,13,17,52,14.30
2015,03,13,17,53,14.30
2015,03,13,17,54,14.30
2015,03,13,17,55,14.30
2015,03,13,17,56,14.30
2015,03,13,17,57,14.30
2015,03,13,17,58,14.30
2015,03,13,17,59,14.40
2015,03,13,18,00,14.40
2015,03,13,18,01,14.40
2015,03,13,18,02,14.40
2015,03,13,18,03,14.40
2015,03,13,18,04,14.30
2015,03,13,18,05,14.30
2015,03,13,18,06,14.30
2015,03,13,18,07,14.30
2015,03,13,18,08,14.30
2015,03,13,18,09,14.30
2015,03,13,18,10,14.30
2015,03,13,18,11,14.30
2015,03,13,18,12,14.20
2015,03,13,18,13,14.20
2015,03,13,18,14,14.20
2015,03,13,18,15,14.10
2015,03,13,18,16,14.10
2015,03,13,18,17,14.00
2015,03,13,18,18,14.00
2015,03,13,18,19,13.90
2015,03,13,18,20,14.00
2015,03,13,18,21,14.00
2015,03,13,18,22,14.10
2015,03,13,18,23,14.10
2015,03,13,18,24,14.20
2015,03,13,18,25,14.20
2015,03,13,18,26,14.30
2015,03,13,18,27,14.30
2015,03,13,18,28,14.40
2015,03,13,18,29,14.50
2015,03,13,18,30,14.50
2015,03,13,18,31,14.60
2015,03,13,18,32,14.60
2015,03,13,18,33,14.60
2015,03,13,18,34,14.60
2015,03,13,18,35,14.60
2015,03,13,18,36,14.70
2015,03,13,18,37,14.70
2015,03,13,18,38,14.70
2015,03,13,18,39,14.70
2015,03,13,18,40,14.70
2015,03,13,18,41,14.70
2015,03,13,18,42,14.80
2015,03,13,18,43,14.80
2015,03,13,18,44,14.80
2015,03,13,18,45,14.80
2015,03,13,18,46,14.80
2015,03,13,18,47,14.90
2015,03,13,18,48,14.90
2015,03,13,18,49,14.90
2015,03,13,18,50,14.90
2015,03,13,18,51,14.90
2015,03,13,18,52,14.90
2015,03,13,18,53,14.90
2015,03,13,18,54,14.90
2015,03,13,18,55,15.00
2015,03,13,18,56,15.00
2015,03,13,18,57,15.00
2015,03,13,18,58,15.00
2015,03,13,18,59,15.00
2015,03,13,19,00,15.10
2015,03,13,19,01,15.10
2015,03,13,19,02,15.10
2015,03,13,19,03,15.10
2015,03,13,19,04,15.10
2015,03,13,19,05,15.20
2015,03,13,19,06,15.20
2015,03,13,19,07,15.20
2015,03,13,19,08,15.20
2015,03,13,19,09,15.20
2015,03,13,19,10,15.20
2015,03,13,19,11,15.30
2015,03,13,19,12,15.30
2015,03,13,19,13,15.30
2015,03,13,19,14,15.20
2015,03,13,19,15,15.20
2015,03,13,19,16,15.20
2015,03,13,19,17,15.20
2015,03,13,19,18,15.20
2015,03,13,19,19,15.20
2015,03,13,19,20,15.20
2015,03,13,19,21,15.20
2015,03,13,19,22,15.20
2015,03,13,19,23,15.00
2015,03,13,19,24,14.90
2015,03,13,19,25,14.70
2015,03,13,19,26,14.60
2015,03,13,19,27,14.50
2015,03,13,19,28,14.30
2015,03,13,19,29,14.20
2015,03,13,19,30,14.10
2015,03,13,19,31,13.90
2015,03,13,19,32,13.90
2015,03,13,19,33,13.80
2015,03,13,19,34,13.70
2015,03,13,19,35,13.70
2015,03,13,19,36,13.70
2015,03,13,19,37,13.60
2015,03,13,19,38,13.60
2015,03,13,19,39,13.60
2015,03,13,19,40,13.50
2015,03,13,19,41,13.50
2015,03,13,19,42,13.40
2015,03,13,19,43,13.30
2015,03,13,19,44,13.20
2015,03,13,19,45,13.20
2015,03,13,19,46,13.10
2015,03,13,19,47,13.10
2015,03,13,19,48,13.00
2015,03,13,19,49,13.00
2015,03,13,19,50,13.00
2015,03,13,19,51,12.90
2015,03,13,19,52,12.90
2015,03,13,19,53,12.90
2015,03,13,19,54,12.80
2015,03,13,19,55,12.80
2015,03,13,19,56,12.80
2015,03,13,19,57,12.80
2015,03,13,19,58,12.80
2015,03,13,19,59,12.70
2015,03,13,20,00,12.70
2015,03,13,20,01,12.70
2015,03,13,20,02,12.70
2015,03,13,20,03,12.60
2015,03,13,20,04,12.60
2015,03,13,20,05,12.50
2015,03,13,20,06,12.50
2015,03,13,20,07,12.40
2015,03,13,20,08,12.40
2015,03,13,20,09,12.40
2015,03,13,20,10,12.40
2015,03,13,20,11,12.30
2015,03,13,20,12,12.30
2015,03,13,20,13,12.30
2015,03,13,20,14,12.20
2015,03,13,20,15,12.20
2015,03,13,20,16,12.10
2015,03,13,20,17,12.10
2015,03,13,20,18,12.00
2015,03,13,20,19,12.00
2015,03,13,20,20,11.90
2015,03,13,20,21,11.90
2015,03,13,20,22,11.80
2015,03,13,20,23,11.80
2015,03,13,20,24,11.80
2015,03,13,20,25,11.80
2015,03,13,20,26,11.80
2015,03,13,20,27,11.70
2015,03,13,20,28,11.70
2015,03,13,20,29,11.80
2015,03,13,20,30,11.80
2015,03,13,20,31,11.80
2015,03,13,20,32,11.70
2015,03,13,20,33,11.70
2015,03,13,20,34,11.70
2015,03,13,20,35,11.70
2015,03,13,20,36,11.60
2015,03,13,20,37,11.60
2015,03,13,20,38,11.60
2015,03,13,20,39,11.60
2015,03,13,20,40,11.60
2015,03,13,20,41,11.60
2015,03,13,20,42,11.50
2015,03,13,20,43,11.50
2015,03,13,20,44,11.50
2015,03,13,20,45,11.50
2015,03,13,20,46,11.40
2015,03,13,20,47,11.40
2015,03,13,20,48,11.30
2015,03,13,20,49,11.30
2015,03,13,20,50,11.30
2015,03,13,20,51,11.30
2015,03,13,20,52,11.30
2015,03,13,20,53,11.20
2015,03,13,20,54,11.20
2015,03,13,20,55,11.20
2015,03,13,20,56,11.10
2015,03,13,20,57,11.00
2015,03,13,20,58,11.00
2015,03,13,20,59,10.90
2015,03,13,21,00,10.90
2015,03,13,21,01,10.80
2015,03,13,21,02,10.80
2015,03,13,21,03,10.80
2015,03,13,21,04,10.80
2015,03,13,21,05,10.80
2015,03,13,21,06,10.80
2015,03,13,21,07,10.80
2015,03,13,21,08,10.80
2015,03,13,21,09,10.80
2015,03,13,21,10,10.80
2015,03,13,21,11,10.80
2015,03,13,21,12,10.80
2015,03,13,21,13,10.80
2015,03,13,21,14,10.80
2015,03,13,21,15,10.70
2015,03,13,21,16,10.70
2015,03,13,21,17,10.70
2015,03,13,21,18,10.60
2015,03,13,21,19,10.60
2015,03,13,21,20,10.60
2015,03,13,21,21,10.50
2015,03,13,21,22,10.50
2015,03,13,21,23,10.40
2015,03,13,21,24,10.40
2015,03,13,21,25,10.40
2015,03,13,21,26,10.40
2015,03,13,21,27,10.40
2015,03,13,21,28,10.40
2015,03,13,21,29,10.40
2015,03,13,21,30,10.40
2015,03,13,21,31,10.40
2015,03,13,21,32,10.40
2015,03,13,21,33,10.40
